#timestamp,LO_Frequency,Hit,StdDev 
1595336415.1,286047003.9,N
1595336435.9,286047001.5,N
1595336455.7,286047002.2,N
1595336475.5,286047001.8,N
1595336495.4,286047002.0,N
1595336515.2,286047001.5,N
1595336535.0,286047001.3,N
1595336535.9,286047001.3,N
1595336555.8,286047001.9,N
1595336575.6,286047001.9,N
1595336595.5,286047001.7,N
1595336615.3,286047003.7,N
1595336635.1,286047003.8,N
1595336655.9,286047003.5,N
1595336675.7,286047006.0,Y
1595336695.5,286047004.4,P
1595336715.4,286047004.2,N
1595336735.2,286047003.7,N
1595336755.1,286047006.0,Y
1595336756.0,286047006.0,P
1595336775.8,286047000.9,N
1595336795.6,286046998.5,N
1595336815.5,286046998.8,N
1595336835.3,286046999.2,N
1595336855.1,286046998.9,N
1595336875.9,286046999.4,N
1595336895.7,286046999.0,N
1595336915.6,286046999.1,N
1595336935.4,286046998.6,N
1595336955.2,286047000.9,N
1595336975.1,286047001.2,N
1595336976.0,286047001.2,N
1595336995.8,286046998.2,N
1595337015.7,286046998.3,N
1595337035.5,286046998.5,N
1595337055.3,286046999.5,N
1595337075.2,286046998.7,N
1595337095.9,286046998.8,N
1595337115.7,286047001.0,N
1595337135.6,286046999.7,N
1595337155.4,286047002.5,N
1595337175.3,286047000.2,N
1595337195.1,286047002.8,N
1595337196.0,286047002.8,N
1595337215.8,286046999.8,N
1595337235.7,286047000.1,N
1595337255.5,286046999.8,N
1595337275.3,286046999.7,N
1595337295.2,286047001.0,N
1595337315.0,286046996.7,N
1595337315.9,286046996.7,N
1595337335.8,286046997.4,N
1595337355.6,286046997.7,N
1595337375.4,286046995.7,N
1595337395.3,286046995.2,N
1595337415.1,286046996.7,N
1595337435.8,286046996.7,N
1595337455.7,286046999.1,N
1595337475.5,286046999.3,N
1595337495.4,286046996.6,N
1595337515.2,286046998.8,N
1595337535.0,286046998.4,N
1595337535.9,286046998.4,N
1595337555.8,286046998.9,N
1595337575.6,286046999.2,N
1595337595.4,286046999.3,N
1595337615.3,286046998.6,N
1595337635.1,286046998.8,N
1595337655.9,286046999.0,N
1595337675.7,286046998.9,N
1595337695.5,286046998.6,N
1595337715.4,286046999.1,N
1595337735.2,286046996.6,N
1595337755.0,286046999.5,N
1595337755.9,286046999.5,N
1595337775.8,286046998.3,N
1595337795.6,286046998.2,N
1595337815.4,286047000.7,N
1595337835.3,286046998.4,N
1595337855.1,286046998.9,N
1595337875.9,286047000.7,N
1595337895.7,286047000.5,N
1595337915.5,286047000.5,N
1595337935.4,286047000.5,N
1595337955.2,286046999.7,N
1595337975.1,286046999.7,N
1595337976.0,286046999.7,N
1595337995.8,286047002.3,N
1595338015.6,286047000.4,N
1595338035.5,286047002.6,N
1595338055.3,286046999.8,N
1595338075.1,286047002.8,N
1595338095.9,286046999.8,N
1595338115.7,286047002.8,N
1595338135.6,286046999.9,N
1595338155.4,286047000.0,N
1595338175.2,286047000.5,N
1595338195.1,286047000.5,N
1595338196.0,286047000.5,N
1595338215.8,286047001.0,N
1595338235.7,286047000.6,N
1595338255.5,286046999.7,N
1595338275.3,286047000.2,N
1595338295.2,286047000.6,N
1595338315.9,286046999.0,N
1595338335.7,286046999.1,N
1595338355.6,286046999.6,N
1595338375.4,286046999.0,N
1595338395.3,286046998.3,N
1595338415.1,286046999.5,N
1595338416.0,286046999.5,N
1595338435.8,286046996.8,N
1595338455.7,286046996.6,N
1595338475.5,286046996.9,N
1595338495.3,286046997.7,N
1595338515.2,286046997.8,N
1595338535.0,286046997.8,N
1595338535.9,286046997.8,N
1595338555.8,286046996.9,N
1595338575.6,286046996.8,N
1595338595.4,286046995.2,N
1595338615.3,286046995.8,N
1595338635.1,286046995.1,N
1595338655.8,286046998.0,N
1595338675.7,286046995.8,N
1595338695.5,286046995.3,N
1595338715.4,286046995.1,N
1595338735.2,286046993.7,Y
1595338755.0,286046996.7,P
1595338755.9,286046996.7,P
1595338775.8,286046997.8,P
1595338795.6,286046997.7,Y
1595338815.5,286047000.7,P
1595338835.3,286046998.5,N
1595338855.1,286046998.6,N
1595338875.9,286047000.4,N
1595338895.7,286047000.9,N
1595338915.5,286047000.9,N
1595338935.4,286047000.1,N
1595338955.2,286047002.7,N
1595338975.0,286047002.8,N
1595338976.0,286047002.8,N
1595338995.8,286047000.1,N
1595339015.6,286047000.4,N
1595339035.5,286047000.3,N
1595339055.3,286047000.0,N
1595339075.1,286047001.0,N
1595339095.9,286047000.6,N
1595339115.7,286046998.2,N
1595339135.5,286046998.2,N
1595339155.4,286046998.6,N
1595339175.2,286046998.4,N
1595339195.1,286046998.2,N
1595339196.0,286046998.2,N
1595339215.8,286046998.3,N
1595339235.6,286046998.3,N
1595339255.5,286046998.3,N
1595339275.3,286046998.8,N
1595339295.1,286046999.0,N
1595339315.9,286046997.3,N
1595339335.7,286046999.4,N
1595339355.6,286046996.5,N
1595339375.4,286046998.7,N
1595339395.2,286046999.0,N
1595339415.1,286046996.9,N
1595339416.0,286046996.9,N
1595339435.8,286046996.9,N
1595339455.6,286046995.1,N
1595339475.5,286046995.4,N
1595339495.3,286046995.1,N
1595339515.2,286046996.3,N
1595339535.9,286046995.8,N
1595339555.7,286046995.9,N
1595339575.6,286047011.9,Y
1595339595.4,286046997.2,P
1595339615.3,286046997.6,P
1595339635.1,286046996.7,P
1595339636.0,286046996.7,Y
1595339655.8,286046998.2,P
1595339675.7,286047001.1,N
1595339695.5,286046998.9,N
1595339715.3,286046998.2,N
1595339735.2,286047000.7,N
1595339755.0,286046998.1,N
1595339755.9,286046998.1,N
1595339775.8,286047000.8,N
1595339795.6,286046999.7,N
1595339815.4,286047000.0,N
1595339835.3,286047002.2,N
1595339855.1,286047001.4,N
1595339875.8,286047001.9,N
1595339895.7,286047002.6,N
1595339915.5,286047002.2,N
1595339935.4,286047001.6,N
1595339955.2,286047002.6,N
1595339975.0,286047002.6,N
1595339975.9,286047002.6,N
1595339995.8,286046999.8,N
